EW4463 Weather Reports


time (UTC)temp
C
wind
direction
speed
KPH
gust
KPH
rain 1hr
cm
rain 24hr
cm
rain mn
cm
humidity
%
barometer
mb
20260505140404 8 306 24.1 27.4 0.00 0.00 0.00 51 1010.1
20260505124817 7 276 14.5 17.7 0.00 0.00 0.00 61 1009.9
20260505124314 7 283 12.9 16.1 0.00 0.00 0.00 63 1010.0
20260505123810 7 265 17.7 20.9 0.00 0.00 0.00 62 1010.1
20260505123307 7 286 14.5 20.9 0.00 0.00 0.00 64 1010.0
20260505122803 7 279 16.1 22.5 0.00 0.00 0.00 62 1010.0
20260505122301 7 283 16.1 17.7 0.00 0.00 0.00 63 1010.0
20260505121757 6 278 14.5 16.1 0.00 0.00 0.00 64 1009.8
20260505121254 6 270 9.7 16.1 0.00 0.00 0.00 65 1009.9
20260505120750 6 280 12.9 14.5 0.00 0.00 0.00 67 1009.9
20260505120246 6 267 11.3 12.9 0.00 0.00 0.00 68 1009.6
20260505115745 6 285 8.0 11.3 0.00 0.00 0.00 68 1009.4
20260505115243 5 288 6.4 8.0 0.00 0.00 0.00 70 1009.0
20260505114740 6 301 3.2 4.8 0.00 0.00 0.00 68 1008.5
20260505114236 6 315 1.6 3.2 0.00 0.00 0.00 61 1008.5
20260505113733 6 298 3.2 3.2 0.00 0.00 0.00 58 1008.4
20260505113229 6 338 1.6 1.6 0.00 0.00 0.00 58 1008.1
20260505112725 6 339 0.0 1.6 0.00 0.00 0.00 59 1008.1
20260505112223 6 314 1.6 3.2 0.00 0.00 0.00 60 1008.2
20260505111723 5 303 3.2 3.2 0.00 0.00 0.00 61 1008.3
20260505111219 5 292 3.2 4.8 0.00 0.00 0.00 63 1008.4
20260505110715 5 270 4.8 4.8 0.00 0.00 0.00 64 1008.4
20260505110213 5 274 3.2 3.2 0.00 0.00 0.00 65 1008.4
20260505102148 6 300 4.8 8.0 0.00 0.00 0.00 61 1008.3
20260505101647 6 317 4.8 4.8 0.00 0.00 0.00 60 1008.0
20260505101143 6 331 3.2 4.8 0.00 0.00 0.00 59 1008.0
20260505100639 6 320 3.2 4.8 0.00 0.00 0.00 57 1007.8
20260505100136 6 312 4.8 4.8 0.00 0.00 0.00 57 1008.0
20260505095632 6 337 4.8 9.7 0.00 0.00 0.00 56 1007.9
20260505095130 6 334 4.8 4.8 0.00 0.00 0.00 56 1007.5
20260505094626 6 333 4.8 8.0 0.00 0.00 0.00 56 1007.7
20260505094122 6 334 6.4 9.7 0.00 0.00 0.00 55 1007.7
20260505093618 7 347 8.0 12.9 0.00 0.00 0.00 54 1007.7
20260505093116 7 350 6.4 11.3 0.00 0.00 0.00 54 1007.8
20260505092613 7 335 11.3 12.9 0.00 0.00 0.00 53 1007.9
20260505092112 7 344 11.3 12.9 0.00 0.00 0.00 52 1008.1
20260505091608 7 350 8.0 16.1 0.00 0.00 0.00 51 1008.0
20260505091106 7 327 19.3 29.0 0.00 0.00 0.00 50 1007.9
20260505090604 7 327 11.3 17.7 0.00 0.00 0.00 50 1007.6
20260505085559 7 335 16.1 29.0 0.00 0.00 0.00 49 1007.6
20260505085057 7 346 14.5 17.7 0.00 0.00 0.00 51 1007.4
20260505084555 7 353 11.3 16.1 0.00 0.00 0.00 51 1007.2
20260505084053 7 348 17.7 24.1 0.00 0.00 0.00 52 1007.2
20260505083549 7 341 8.0 22.5 0.00 0.00 0.00 54 1007.1
20260505083046 7 333 8.0 11.3 0.00 0.00 0.00 58 1007.1
20260505082542 7 321 8.0 9.7 0.00 0.00 0.00 58 1007.0
20260505082039 7 338 4.8 8.0 0.00 0.00 0.00 58 1006.6
20260505081535 7 348 6.4 9.7 0.00 0.00 0.00 58 1006.5
20260505081032 7 334 6.4 9.7 0.00 0.00 0.00 59 1006.4
20260505080529 7 1 8.0 16.1 0.00 0.00 0.00 58 1006.2
20260505080026 7 352 6.4 14.5 0.00 0.00 0.00 58 1005.9
20260505075521 8 3 9.7 14.5 0.00 0.00 0.00 57 1006.0
20260505075018 8 11 9.7 16.1 0.00 0.00 0.00 57 1005.7
20260505074516 8 349 11.3 17.7 0.00 0.00 0.00 57 1005.6
20260505074013 8 334 11.3 17.7 0.00 0.00 0.00 58 1005.6
20260505073510 8 357 11.3 20.9 0.00 0.00 0.00 59 1005.5
20260505073008 8 357 8.0 14.5 0.00 0.00 0.00 60 1005.9
20260505072504 8 3 4.8 11.3 0.00 0.00 0.00 61 1005.7
20260505071959 8 352 11.3 14.5 0.00 0.00 0.00 58 1005.6
20260505071455 8 330 8.0 20.9 0.00 0.00 0.00 56 1005.8
20260505070954 8 313 8.0 17.7 0.00 0.00 0.00 55 1005.8
20260505070450 9 349 14.5 22.5 0.00 0.00 0.00 55 1005.7
20260505065946 9 348 17.7 29.0 0.00 0.00 0.00 55 1005.5
20260505065443 9 1 12.9 20.9 0.00 0.00 0.00 57 1005.5
20260505064939 9 348 17.7 27.4 0.00 0.00 0.00 56 1005.3
20260505064436 9 2 24.1 27.4 0.00 0.00 0.00 55 1005.0
20260505063935 10 359 9.7 17.7 0.00 0.00 0.00 55 1005.0
20260505063431 10 336 16.1 27.4 0.00 0.00 0.00 53 1005.0
20260505062927 10 3 14.5 24.1 0.00 0.00 0.00 52 1004.9
20260505062425 10 355 17.7 29.0 0.00 0.00 0.00 52 1004.5
20260505061921 10 324 14.5 25.7 0.00 0.00 0.00 51 1004.9
20260505061420 10 341 14.5 24.1 0.00 0.00 0.00 52 1004.8
20260505060917 10 343 19.3 24.1 0.00 0.00 0.00 51 1004.6
20260505060414 10 335 20.9 25.7 0.00 0.00 0.00 51 1004.7
20260505055910 10 327 16.1 33.8 0.00 0.00 0.00 51 1004.7
20260505055406 11 2 16.1 32.2 0.00 0.00 0.00 50 1004.5
20260505054903 11 309 22.5 27.4 0.00 0.00 0.00 50 1004.7
20260505054400 11 6 14.5 24.1 0.00 0.00 0.00 51 1004.5
20260505053858 11 352 11.3 27.4 0.00 0.00 0.00 51 1004.8
20260505053355 11 310 17.7 35.4 0.00 0.00 0.00 51 1004.7
20260505052852 11 9 22.5 33.8 0.00 0.00 0.00 52 1004.6
20260505052349 11 304 17.7 35.4 0.00 0.00 0.00 52 1004.6
20260505051846 11 307 17.7 27.4 0.00 0.00 0.00 52 1004.2
20260505051343 12 322 14.5 27.4 0.00 0.00 0.00 52 1004.2
20260505050841 12 330 14.5 27.4 0.00 0.00 0.00 54 1004.3
20260505050340 12 352 16.1 24.1 0.00 0.00 0.00 53 1003.8
20260505041307 13 346 19.3 24.1 0.00 0.00 0.00 46 1002.8
20260505040804 13 314 12.9 17.7 0.00 0.00 0.00 47 1002.7
20260505040301 13 357 12.9 16.1 0.00 0.00 0.00 47 1003.0
20260505035758 13 282 12.9 20.9 0.00 0.00 0.00 46 1002.8
20260505035254 13 302 20.9 25.7 0.00 0.00 0.00 45 1003.0
20260505034751 14 317 24.1 33.8 0.00 0.00 0.00 43 1002.9
20260505034248 13 324 22.5 27.4 0.00 0.00 0.00 44 1003.1
20260505033744 14 316 20.9 27.4 0.00 0.00 0.00 44 1002.8
20260505033242 15 323 27.4 33.8 0.00 0.00 0.00 42 1002.9
20260505032740 15 278 22.5 25.7 0.00 0.00 0.00 42 1002.5
20260505032235 15 158 24.1 29.0 0.00 0.00 0.00 41 1002.6
20260505031733 15 277 22.5 33.8 0.00 0.00 0.00 40 1002.3
20260505031229 15 306 17.7 32.2 0.00 0.00 0.00 41 1002.3
20260505030726 15 296 17.7 29.0 0.00 0.00 0.00 42 1002.2
20260505030222 15 278 24.1 27.4 0.00 0.00 0.00 40 1002.1
20260505025718 15 351 22.5 27.4 0.00 0.00 0.00 39 1001.7
20260505025217 15 300 20.9 24.1 0.00 0.00 0.00 41 1001.9
20260505024715 15 281 22.5 25.7 0.00 0.00 0.00 42 1001.8
20260505024211 15 325 22.5 27.4 0.00 0.00 0.00 41 1001.6
20260505023709 15 139 24.1 27.4 0.00 0.00 0.00 40 1001.4
20260505023206 15 322 16.1 20.9 0.00 0.00 0.00 41 1001.3
20260505022704 16 315 14.5 25.7 0.00 0.00 0.00 40 1001.0
20260505022200 16 40 14.5 33.8 0.00 0.00 0.00 38 1001.1
20260505021657 16 307 22.5 25.7 0.00 0.00 0.00 37 1001.1
20260505021154 16 291 27.4 32.2 0.00 0.00 0.00 37 1000.9
20260505020649 16 318 30.6 37.0 0.00 0.00 0.00 36 1000.8
20260505020145 16 136 27.4 38.6 0.00 0.00 0.00 39 1000.7
20260505015643 16 259 33.8 38.6 0.00 0.00 0.00 38 1000.5
20260505015139 17 346 20.9 27.4 0.00 0.00 0.00 40 1000.6
20260505014636 17 337 19.3 29.0 0.00 0.00 0.00 40 1000.3
20260505014133 17 279 32.2 46.7 0.00 0.00 0.00 39 999.9
20260505013631 17 346 30.6 38.6 0.00 0.00 0.00 39 999.9
20260505013128 17 340 37.0 46.7 0.00 0.00 0.00 38 999.8
20260505012626 17 344 35.4 46.7 0.00 0.00 0.00 38 999.6
20260505012122 18 322 46.7 56.3 0.00 0.00 0.00 38 999.5
20260505011618 18 310 30.6 41.8 0.00 0.00 0.00 40 999.4
20260505011115 18 353 25.7 40.2 0.00 0.00 0.00 40 999.5
20260505010611 18 332 29.0 46.7 0.00 0.00 0.00 40 999.2
20260505010108 18 29 20.9 43.5 0.00 0.00 0.00 41 999.2
20260505005604 19 292 22.5 37.0 0.00 0.00 0.00 42 998.9
20260505005101 19 283 22.5 37.0 0.00 0.00 0.00 42 998.7
20260505004558 20 301 17.7 29.0 0.00 0.00 0.00 43 998.6
20260505004055 20 332 27.4 37.0 0.00 0.00 0.00 41 998.4
20260505003552 20 352 19.3 29.0 0.00 0.00 0.00 43 998.4
20260505003049 20 351 17.7 32.2 0.00 0.00 0.00 42 998.1
20260505002544 21 7 27.4 43.5 0.00 0.00 0.00 41 997.9
20260505002043 21 313 19.3 33.8 0.00 0.00 0.00 42 998.1
20260505001540 21 352 29.0 38.6 0.00 0.00 0.00 41 998.0
20260505001037 21 344 30.6 41.8 0.00 0.00 0.00 41 998.0
20260505000535 22 283 19.3 29.0 0.00 0.00 0.00 42 997.9
20260505000032 22 332 20.9 29.0 0.00 0.00 0.00 42 997.9
20260504235529 22 14 24.1 35.4 0.00 0.00 0.00 42 997.8
20260504235025 22 304 24.1 27.4 0.00 0.00 0.00 42 997.8
20260504234522 22 332 27.4 38.6 0.00 0.00 0.00 41 997.5
20260504234019 22 304 24.1 35.4 0.00 0.00 0.00 41 997.6
20260504233514 22 299 29.0 43.5 0.00 0.00 0.00 41 997.5
20260504233012 23 344 37.0 46.7 0.00 0.00 0.00 40 997.6
20260504232509 23 275 24.1 33.8 0.00 0.00 0.00 41 997.5
20260504232007 23 3 25.7 40.2 0.00 0.00 0.00 41 997.2
20260504231503 25 352 33.8 38.6 0.00 0.00 0.00 38 997.1
20260504230959 25 272 32.2 40.2 0.00 0.00 0.00 37 996.8
20260504230455 25 251 17.7 29.0 0.00 0.00 0.00 36 997.0
20260504225954 25 218 24.1 33.8 0.00 0.00 0.00 36 997.0
20260504225451 25 286 27.4 33.8 0.00 0.00 0.00 36 997.1
20260504224948 25 291 20.9 32.2 0.00 0.00 0.00 38 996.9
20260504224444 25 271 37.0 46.7 0.00 0.00 0.00 36 997.0
20260504223941 25 270 20.9 33.8 0.00 0.00 0.00 38 997.0
20260504223437 25 290 43.5 53.1 0.00 0.00 0.00 35 996.8
20260504222933 25 271 38.6 48.3 0.00 0.00 0.00 35 996.6
20260504222431 25 286 32.2 43.5 0.00 0.00 0.00 35 997.0
20260504221929 25 280 46.7 53.1 0.00 0.00 0.00 35 996.9
20260504221425 25 271 41.8 49.9 0.00 0.00 0.00 35 996.8
20260504220922 25 283 37.0 43.5 0.00 0.00 0.00 36 996.8
20260504220419 25 265 48.3 54.7 0.00 0.00 0.00 35 996.9
20260504215916 25 279 37.0 53.1 0.00 0.00 0.00 36 997.0
20260504215413 25 271 38.6 46.7 0.00 0.00 0.00 36 996.9
20260504214909 25 280 32.2 43.5 0.00 0.00 0.00 36 997.0
20260504214406 25 285 40.2 59.5 0.00 0.00 0.00 35 996.9
20260504213903 26 275 46.7 59.5 0.00 0.00 0.00 33 996.8
20260504213358 25 294 24.1 37.0 0.00 0.00 0.00 38 997.2
20260504212856 25 271 38.6 46.7 0.00 0.00 0.00 37 997.0
20260504212352 25 274 35.4 48.3 0.00 0.00 0.00 36 997.2
20260504211850 25 273 25.7 35.4 0.00 0.00 0.00 38 997.2
20260504211346 25 275 35.4 51.5 0.00 0.00 0.00 37 997.0
20260504210843 25 263 27.4 49.9 0.00 0.00 0.00 36 997.2
20260504210340 25 275 40.2 46.7 0.00 0.00 0.00 35 997.4
20260504205837 25 267 37.0 51.5 0.00 0.00 0.00 36 997.4
20260504205335 25 278 41.8 46.7 0.00 0.00 0.00 37 997.5
20260504204833 25 291 38.6 49.9 0.00 0.00 0.00 35 997.6
20260504204331 25 275 33.8 43.5 0.00 0.00 0.00 36 997.5
20260504203830 25 277 48.3 54.7 0.00 0.00 0.00 35 997.5
20260504203327 25 268 48.3 64.4 0.00 0.00 0.00 35 997.5
20260504202822 25 288 43.5 49.9 0.00 0.00 0.00 35 997.7
20260504202320 25 282 38.6 53.1 0.00 0.00 0.00 36 997.9
20260504201816 25 278 51.5 56.3 0.00 0.00 0.00 36 997.6
20260504201314 25 260 43.5 54.7 0.00 0.00 0.00 35 997.7
20260504200811 25 274 41.8 54.7 0.00 0.00 0.00 36 998.1
20260504200308 25 264 40.2 49.9 0.00 0.00 0.00 36 998.0
20260504195803 25 270 38.6 46.7 0.00 0.00 0.00 37 998.3
20260504195259 25 294 45.1 56.3 0.00 0.00 0.00 36 998.1
20260504194757 25 277 53.1 67.6 0.00 0.00 0.00 36 998.0
20260504194253 25 270 43.5 59.5 0.00 0.00 0.00 37 997.9
20260504193749 25 292 48.3 64.4 0.00 0.00 0.00 36 997.9
20260504193247 25 299 45.1 54.7 0.00 0.00 0.00 36 998.1
20260504192745 25 276 40.2 56.3 0.00 0.00 0.00 35 998.2
20260504192243 25 234 41.8 51.5 0.00 0.00 0.00 36 998.3
20260504191741 25 276 46.7 59.5 0.00 0.00 0.00 35 998.4
20260504191238 25 272 32.2 48.3 0.00 0.00 0.00 36 998.3
20260504190733 25 281 32.2 43.5 0.00 0.00 0.00 36 998.5
20260504190230 24 281 43.5 67.6 0.00 0.00 0.00 36 998.5
20260504185726 25 272 33.8 64.4 0.00 0.00 0.00 35 998.5
20260504185223 24 274 37.0 51.5 0.00 0.00 0.00 34 998.7
20260504184719 25 263 46.7 53.1 0.00 0.00 0.00 35 998.4
20260504184215 24 271 45.1 49.9 0.00 0.00 0.00 35 998.4
20260504183711 24 274 43.5 64.4 0.00 0.00 0.00 34 998.6
20260504183208 24 249 46.7 62.8 0.00 0.00 0.00 34 998.6
20260504182706 24 257 37.0 49.9 0.00 0.00 0.00 35 998.4
20260504182203 23 265 32.2 49.9 0.00 0.00 0.00 37 998.6
20260504181701 24 263 46.7 54.7 0.00 0.00 0.00 36 998.7
20260504181158 24 274 45.1 56.3 0.00 0.00 0.00 36 998.5
20260504180657 24 277 40.2 54.7 0.00 0.00 0.00 35 998.4
20260504180155 23 266 33.8 43.5 0.00 0.00 0.00 35 998.6
20260504175652 23 283 38.6 54.7 0.00 0.00 0.00 34 998.5
20260504175149 23 258 49.9 62.8 0.00 0.00 0.00 34 998.4
20260504174647 23 279 46.7 56.3 0.00 0.00 0.00 35 998.4
20260504174144 23 253 49.9 54.7 0.00 0.00 0.00 34 998.6
20260504173641 24 293 41.8 56.3 0.00 0.00 0.00 35 998.5
20260504173138 23 276 41.8 56.3 0.00 0.00 0.00 34 998.7
20260504172635 23 276 45.1 61.2 0.00 0.00 0.00 35 999.5
20260504172131 23 264 46.7 56.3 0.00 0.00 0.00 34 998.7
20260504171627 23 289 46.7 61.2 0.00 0.00 0.00 33 999.0
20260504171125 23 282 40.2 49.9 0.00 0.00 0.00 34 998.9
20260504170621 23 278 38.6 61.2 0.00 0.00 0.00 35 999.3
20260504170119 23 253 57.9 67.6 0.00 0.00 0.00 33 999.2
20260504151004 21 257 37.0 38.6 0.00 0.00 0.00 40 1000.8
20260504150502 20 270 29.0 43.5 0.00 0.00 0.00 42 1001.0